Terug naar catalogus

STARLINK-31426

ActiefCommunicatieVLEO
NORAD 59249·PAYLOAD·🇺🇸 United States

Gelanceerd Mar 16, 2024 vanaf Cape Canaveral Space Force Station

Loading…

Volgende Passages (komende 24 uur)

TLE

VersSource: CelesTrak SupGP

Epoch: Sep 14, 2026, 22:27 UTC

1 59249C 24049U   26257.93590278 -.00054178  00000+0 -19627-2 0  2573
2 59249  43.0009 154.9719 0001320 270.0948 190.9463 15.27599226    10

Volg STARLINK-31426 in realtime met AllMySat

Download on the App Store